Skip Page Navigation
NASA JPL Caltech
NASA Logo - Jet Propulsion Laboratory + View the NASA Portal
+ Center for Near-Earth Object Studies
JPL Home Earth Solar System Stars & Galaxies Technology
JPL Solar System Dynamics
BODIES ORBITS EPHEMERIDES TOOLS PHYSICAL DATA DISCOVERY FAQ SITE MAP
JPL Small-Body Database Browser
Search: [ help ]  
233606 (2007 SE10)
Classification: Main-belt Asteroid          SPK-ID: 2233606
Ephemeris | Orbit Diagram | Orbital Elements | Mission Design | Physical Parameters | Discovery Circumstances | Close-Approach Data ]

[ show orbit diagram ]
Orbital Elements at Epoch 2459000.5 (2020-May-31.0) TDB
Reference: JPL 15 (heliocentric ecliptic J2000)
 Element Value Uncertainty (1-sigma)   Units 
e .05645567818423566 5.3114e-08  
a 2.988690909769388 3.0588e-08 au
q 2.819962337575297 1.6202e-07 au
i .9450319336887116 5.9346e-06 deg
node 138.2843354527912 0.00033531 deg
peri 215.3632067020276 0.00033928 deg
M 156.6370358088944 5.3454e-05 deg
tp 2458179.370063006338
(2018-Mar-01.87006301)
0.00027727 TDB
period 1887.208703811113
5.17
2.8972e-05
7.932e-08
d
yr
n .1907579163200128 2.9285e-09 deg/d
Q 3.157419481963479 3.2315e-08 au
  Orbit Determination Parameters
   # obs. used (total)      227  
   data-arc span      9516 days (26.05 yr)  
   first obs. used      1994-01-13  
   last obs. used      2020-02-02  
   planetary ephem.      DE431  
   SB-pert. ephem.      SB431-N16  
   condition code      0  
   norm. resid. RMS      .5733  
   source      ORB  
   producer      Otto Matic  
   solution date      2020-Feb-25 07:21:50  

Additional Information
 Earth MOID = 1.81447 au 
 Jupiter MOID = 2.11161 au 
 T_jup = 3.254 
[ show covariance matrix ]

Ephemeris | Orbit Diagram | Orbital Elements | Mission Design | Physical Parameters | Discovery Circumstances | Close-Approach Data ]

Physical Parameter Table
Parameter Symbol Value Units Sigma Reference Notes
absolute magnitude H 16.1   n/a MPO418247  

233606 (2007 SE10)          Discovered 2007-Sep-19 by Spacewatch at Kitt Peak
Reference: 20100228/Numbers.arcLast Updated: 2010-03-03

[ show close-approach data ]
Alternate Designations
 2007 SE10 = 2002 RP207 = 2005 GE226 
Ephemeris | Orbit Diagram | Orbital Elements | Mission Design | Physical Parameters | Discovery Circumstances | Close-Approach Data ]
ABOUT SSD CREDITS/AWARDS PRIVACY/COPYRIGHT GLOSSARY LINKS
FirstGov 2020-Jul-13 05:46 UT
(server date/time)  
NASA Home Page
Site Manager:   Ryan S. Park
Webmaster  Alan B. Chamberlin